User: anonymous   Login
Location: Wildcat Hills Observatory
(41.6350°N, 103.6812°W)
Time: 10:44:12
(UTC-06:00)
Language:

Cosmos 1634 Rocket - Orbit

View from above orbital plane
View from above orbital plane
View from above satellite
View from above satellite

Ground track
Ground track

The orbit data is extracted from the following two-line orbital elements,

1 15598U 85022B   17202.20780265 +.00000008 +00000-0 -69056-5 0  9997
2 15598 082.9364 081.8249 0022617 017.4835 096.0671 13.76565884625140
Epoch (UTC): 21 July 2017 04:59:14
Eccentricity: 0.0022617
inclination: 82.9364°
perigee height: 959 km
apogee height: 993 km
right ascension of ascending node: 81.8249°
argument of perigee: 17.4835°
revolutions per day: 13.76565884
mean anomaly at epoch: 96.0671°
orbit number at epoch: 62514

The dashed part of the orbit path shows where the satellite is in the earth's shadow,  

DLR